Tracking 32427 objects as of 10-Dec-2025
HD Live streaming from Space Station
objects crossing your sky now

STARLINK-34175

Track STARLINK-34175 now!
10-day predictions
STARLINK-34175 is classified as:


NORAD ID: 64169
Int'l Code: 2025-112Z
Perigee: 556.0 km
Apogee: 557.3 km
Inclination: 97.6 °
Period: 95.6 minutes
Semi major axis: 6927 km
RCS: Unknown
Launch date: May 27, 2025
Source: United States (US)
Launch site: AIR FORCE WESTERN TEST RANGE (AFWTR)
Your satellite tracking list
Your tracking list is empty




NASA's NSSDC Master Catalog

Two Line Element Set (TLE):
1 64169U 25112Z   25343.09999816  .00005903  00000-0  41288-3 0  9998
2 64169  97.6046  32.1684 0000970 152.2982 207.8296 15.05658766 29676
Source of the keplerian elements: AFSPC